Flag for U.S.A. Weather past 2 weeks in Portland, Maine, U.S.A.

Now
48 °F

Overcast.


Feels Like: 42 °F
Forecast: 43 / 54 °F
Wind: 15 mph from Northwest

Location: Portland - Portland International Jetport


UV Index: 5 (Moderate)

Visibility: 10 mi


Pressure: 29.86 "Hg

Humidity: 46%

Dew point: 28 °F

Location of PortlandLocation

Historic Weather in Portland

°F

Portland temperature yesterday

Maximum temperature yesterday: 57 °F (at 10:51 AM)
Minimum temperature yesterday: 45 °F (at 5:51 AM)
Average temperature yesterday: 49 °F

Past Weeks' High & Low Weather Summary

 TemperatureHumidityPressure
High69 °F (Apr 11, 3:51 PM)100% (Apr 14, 6:51 AM)30.86 "Hg (Apr 14, 6:51 AM)
Low23 °F (Apr 17, 5:51 AM)21% (Apr 11, 12:51 PM)29.40 "Hg (Apr 23, 2:51 AM)
Average45 °F64%30.05 "Hg
* Reported Apr 9 9:51 PM — Apr 24 9:51 PM, Portland, Weather by CustomWeather, © 2014

Note: Actual official high and low records may vary slightly from our data, if they occured in-between our weather recording intervals... More about our weather records

Advertising

Historic Weather Conditions — Data for Previous 24 hours

 ConditionsComfort  
Time TempWeatherWind HumidityBarometerVisibility
9:51 PM
Apr 24
48 °FOvercast.15 mph46%29.86 "Hg10 mi
8:51 PM48 °FOvercast.22 mph46%29.84 "Hg10 mi
7:51 PM48 °FOvercast.25 mph44%29.80 "Hg10 mi
6:51 PM49 °FOvercast.23 mph44%29.77 "Hg10 mi
5:51 PM50 °FOvercast.22 mph41%29.74 "Hg10 mi
4:51 PM53 °FPartly sunny.26 mph37%29.70 "Hg10 mi
3:51 PM54 °FPassing clouds.22 mph35%29.66 "Hg10 mi
2:51 PM53 °FScattered clouds.28 mph37%29.65 "Hg10 mi
1:51 PM53 °FScattered clouds.25 mph37%29.63 "Hg10 mi
12:51 PM52 °FScattered clouds.23 mph37%29.62 "Hg10 mi
11:51 AM51 °FScattered clouds.31 mph38%29.61 "Hg10 mi
10:51 AM47 °FScattered clouds.26 mph44%29.62 "Hg10 mi
9:51 AM46 °FScattered clouds.23 mph46%29.60 "Hg10 mi
8:51 AM45 °FScattered clouds.22 mph48%29.59 "Hg10 mi
7:51 AM43 °FPassing clouds.20 mph49%29.59 "Hg10 mi
6:51 AM41 °FPassing clouds.15 mph55%29.57 "Hg10 mi
5:51 AM41 °FPassing clouds.22 mph58%29.56 "Hg10 mi
4:51 AM42 °FPassing clouds.17 mph57%29.54 "Hg10 mi
3:51 AM42 °FPassing clouds.15 mph60%29.54 "Hg10 mi
2:51 AM43 °FMostly cloudy.22 mph60%29.54 "Hg10 mi
1:51 AM44 °FOvercast.16 mph58%29.54 "Hg10 mi
12:51 AM45 °FOvercast.23 mph58%29.54 "Hg10 mi
11:51 PM
Apr 23
45 °FOvercast.15 mph63%29.53 "Hg10 mi
Weather by CustomWeather, © 2014

See weather overview